Home   Weather   Paris   Past weeks

Flag for France Past Weather in Paris, Île-de-France, France — Yesterday and Last 2 Weeks

Now
50 °F

Overcast.


Feels Like: 45 °F
Forecast: 45 / 53 °F
Wind: 13 mph from Southwest

Location: Villacoublay

Current Time: Feb 22, 2017 at 12:16:49 pm

Latest Report: Feb 22, 2017 at 11:30 am


Visibility: N/A

Pressure: 30.07 "Hg

Humidity: 76%

Dew Point: 43 °F

Location of ParisLocation

Past Weather in Paris — Graph

°F

Paris Temperature Yesterday

Maximum temperature yesterday: 54 °F (at 2:30 pm)
Minimum temperature yesterday: 48 °F (at 9:00 am)
Average temperature yesterday: 51 °F

High & Low Weather Summary for the Past Weeks

 TemperatureHumidityPressure
High61 °F (Feb 15, 3:30 pm)100% (Feb 7, 11:00 am)30.48 "Hg (Feb 7, 11:00 am)
Low28 °F (Feb 11, 1:00 am)54% (Feb 18, 4:30 pm)29.95 "Hg (Feb 7, 11:00 am)
Average43 °F83%30.21 "Hg
* Reported Feb 7 11:00 am — Feb 22 11:00 am, Paris, Weather by CustomWeather, © 2017

Note: Actual official high and low records may vary slightly from our data, if they occured in-between our weather recording intervals... More about our weather records

Advertising

Paris Weather History for the Previous 24 Hours

Scroll right to see more
 ConditionsComfort  
Time TempWeatherWind HumidityBarometerVisibility
11:00 am
Wed, Feb 22
50 °FOvercast.12 mph76%30.07 "HgN/A
10:30 am50 °FOvercast.10 mph76%30.07 "HgN/A
10:00 am48 °FMostly cloudy.9 mph82%30.04 "HgN/A
9:30 am48 °FOvercast.9 mph82%30.04 "HgN/A
9:00 am48 °FOvercast.8 mph82%30.04 "HgN/A
8:30 am48 °FMostly cloudy.8 mph82%30.07 "HgN/A
8:00 am48 °FMostly cloudy.9 mph82%30.04 "HgN/A
7:30 am48 °FMostly cloudy.8 mph82%30.04 "HgN/A
7:00 am50 °FMostly cloudy.8 mph76%30.04 "HgN/A
6:30 am50 °FOvercast.9 mph76%30.04 "HgN/A
6:00 am50 °FOvercast.9 mph76%30.04 "HgN/A
5:30 am50 °FOvercast.12 mph76%30.04 "HgN/A
5:00 am50 °FOvercast.9 mph76%30.04 "HgN/A
4:30 am50 °FMostly cloudy.13 mph82%30.04 "HgN/A
4:00 am50 °FMostly cloudy.13 mph82%30.07 "HgN/A
3:30 am50 °FMostly cloudy.12 mph82%30.07 "HgN/A
3:00 am50 °FMostly cloudy.14 mph82%30.07 "HgN/A
2:30 am50 °FMostly cloudy.10 mph88%30.07 "HgN/A
2:00 am50 °FMostly cloudy.9 mph88%30.09 "HgN/A
1:30 am50 °FMostly cloudy.9 mph88%30.09 "HgN/A
1:00 am50 °FOvercast.9 mph88%30.09 "HgN/A
12:30 am50 °FMostly cloudy.8 mph88%30.09 "HgN/A
12:00 am50 °FOvercast.10 mph88%30.12 "HgN/A
11:30 pm
Tue, Feb 21
50 °FOvercast.9 mph88%30.12 "HgN/A
11:00 pm50 °FMostly cloudy.8 mph88%30.12 "HgN/A
10:30 pm52 °FOvercast.9 mph77%30.12 "HgN/A
10:00 pm52 °FOvercast.13 mph82%30.12 "HgN/A
9:30 pm52 °FOvercast.10 mph82%30.12 "HgN/A
9:00 pm52 °FMostly cloudy.12 mph88%30.12 "HgN/A
8:30 pm52 °FMostly cloudy.8 mph88%30.12 "HgN/A
8:00 pm52 °FMostly cloudy.9 mph88%30.12 "HgN/A
7:30 pm52 °FMostly cloudy.9 mph88%30.12 "HgN/A
7:00 pm52 °FMostly cloudy.6 mph88%30.12 "HgN/A
6:30 pm52 °FMostly cloudy.6 mph88%30.12 "HgN/A
6:00 pm52 °FLow clouds.8 mph88%30.12 "HgN/A
5:30 pm52 °FMostly cloudy.8 mph88%30.12 "HgN/A
5:00 pm52 °FLow clouds.10 mph88%30.12 "HgN/A
4:30 pm54 °FOvercast.9 mph82%30.12 "HgN/A
4:00 pm54 °FOvercast.9 mph82%30.12 "HgN/A
3:30 pm54 °FOvercast.13 mph82%30.15 "HgN/A
3:00 pm54 °FOvercast.10 mph82%30.15 "HgN/A
2:30 pm54 °FOvercast.10 mph82%30.15 "HgN/A
2:00 pm52 °FOvercast.12 mph88%30.15 "HgN/A
1:30 pm52 °FOvercast.9 mph88%30.15 "HgN/A
1:00 pm50 °FLow clouds.9 mph94%30.18 "HgN/A
12:30 pm50 °FLow clouds.9 mph88%30.18 "HgN/A
12:00 pm50 °FLow clouds.9 mph88%30.18 "HgN/A
Weather by CustomWeather, © 2017

See weather overviewHow to use our weather pages